Regional Weather Roundup
Issued by NWS Sioux Falls, SD

Home | Current Version | Previous Version | Graphics & Text | Print | Product List | Glossary Off
Versions: 1 2 3 4 5 6 7 8 9 10 11 12 13 14 15 16 17 18 19 20 21 22 23 24 25 26 27 28 29 30 31 32 33 34 35 36 37 38 39 40 41 42 43 44 45 46 47 48 49 50

000
ASUS43 KFSD 310002
RWRFSD

WEATHER ROUNDUP FOR SE SOUTH DAKOTA/SW MINNESOTA/NW IOWA
NATIONAL WEATHER SERVICE SIOUX FALLS SD
600 PM CST FRI JAN 30 2015

NOTE: "FAIR" INDICATES FEW OR NO CLOUDS BELOW 12,000 FEET WITH NO
SIGNIFICANT WEATHER AND OR OBSTRUCTIONS TO VISIBILITY.


SDZ038>040-050-052>070-310100-
SOUTHEAST SOUTH DAKOTA

CITY           SKY/WX    TMP DP  RH WIND       PRES   REMARKS
CHAMBERLAIN    NOT AVBL
HURON          CLEAR     38  28  67 S5        30.13F
6HR MIN TEMP:  32; 6HR MAX TEMP:  45;

MADISON        FAIR      32  32 100 S9        30.15F WCI  24
MITCHELL       PTCLDY    40  28  62 S7        30.15F
6HR MIN TEMP:  34; 6HR MAX TEMP:  48;

SIOUX FALLS    PTCLDY    35  28  75 S9        30.19F WCI  28
6HR MIN TEMP:  30; 6HR MAX TEMP:  38;

WINNER         FAIR      45  26  47 N8        30.12R
YANKTON        PTCLDY    41  27  56 S7        30.20S
$$

MNZ071-072-080-081-089-090-097-098-310100-
SOUTHWEST MINNESOTA

CITY           SKY/WX    TMP DP  RH WIND       PRES   REMARKS
FAIRMONT       CLEAR     30  21  69 S15       30.23F WCI  19
JACKSON        CLEAR     32  27  80 S15       30.22F WCI  22
LUVERNE        CLEAR     32  28  86 S12       30.21S WCI  23
MARSHALL       CLEAR     32  25  74 SW7       30.20R WCI  26
6HR MIN TEMP:  28; 6HR MAX TEMP:  36;

MONTEVIDEO     CLEAR     32  28  86 SW10      30.18F WCI  24
PIPESTONE      CLEAR     32  28  86 SW13      30.17F WCI  22
REDWOOD FALLS  CLEAR     31  25  78 S10       30.20S WCI  22
TRACY          CLEAR     33  28  81 SW24G32   30.15F WCI  20
WINDOM         CLEAR     30  27  86 S14G20    30.20F WCI  20
WORTHINGTON    CLEAR     30  25  80 S12       30.21F WCI  21
$$

IAZ001>003-012>014-020>022-031-032-NEZ013-014-SDZ071-310100-
NORTHWEST IOWA

CITY           SKY/WX    TMP DP  RH WIND       PRES   REMARKS
ESTHERVILLE    CLEAR     30  24  78 S14       30.23F WCI  19
SIOUX CITY     PTCLDY    36  27  69 S10       30.26F
6HR MIN TEMP:  31; 6HR MAX TEMP:  41;

SPENCER        CLEAR     32  25  75 S9        30.24F WCI  24
6HR MIN TEMP:  27; 6HR MAX TEMP:  35;

$$

ABBREVIATIONS USED IN REMARKS
   TC - TEMPERATURE IN CELSIUS
  WCI - WIND CHILL INDEX
   HX - HEAT INDEX
  VSB - VISIBILITY



USA.gov is the U.S. government's official web portal to all federal, state and local government web resources and services.